| time (UTC) | temp C | wind direction | speed KPH | gust KPH | rain 1hr cm | rain 24hr cm | rain mn cm | humidity % | barometer mb |
| 20260506021444 | 15 | 95 | 1.6 | 9.7 | 0.00 | 0.03 | 0.03 | 86 | 1012.7 |
| 20260506020942 | 15 | 291 | 3.2 | 9.7 | 0.00 | 0.03 | 0.03 | 86 | 1012.7 |
| 20260506020442 | 15 | 234 | 0.0 | 9.7 | 0.00 | 0.03 | 0.03 | 86 | 1012.6 |
| 20260506015940 | 15 | 310 | 0.0 | 9.7 | 0.00 | 0.03 | 0.03 | 86 | 1012.8 |
| 20260506015440 | 15 | 299 | 3.2 | 12.9 | 0.00 | 0.03 | 0.03 | 86 | 1012.7 |
| 20260506014937 | 15 | 273 | 1.6 | 12.9 | 0.00 | 0.03 | 0.03 | 86 | 1012.9 |
| 20260506014803 | 15 | 182 | 1.6 | 11.3 | 0.00 | 0.03 | 0.03 | 86 | 1012.8 |
| 20260506014437 | 15 | 262 | 3.2 | 6.4 | 0.00 | 0.03 | 0.03 | 86 | 1013.0 |
| 20260506013943 | 15 | 249 | 4.8 | 9.7 | 0.00 | 0.03 | 0.03 | 86 | 1012.9 |
| 20260506012934 | 15 | 343 | 1.6 | 12.9 | 0.00 | 0.03 | 0.03 | 86 | 1012.7 |
| 20260506012751 | 16 | 267 | 6.4 | 9.7 | 0.00 | 0.03 | 0.03 | 86 | 1012.8 |
| 20260506012432 | 15 | 239 | 8.0 | 12.9 | 0.00 | 0.03 | 0.03 | 86 | 1012.8 |
| 20260506011936 | 15 | 301 | 3.2 | 11.3 | 0.00 | 0.03 | 0.03 | 86 | 1012.7 |
| 20260506010929 | 16 | 328 | 1.6 | 9.7 | 0.00 | 0.03 | 0.03 | 86 | 1012.6 |
| 20260506010426 | 16 | 235 | 3.2 | 9.7 | 0.00 | 0.03 | 0.03 | 86 | 1012.7 |
| 20260506010358 | 16 | 307 | 6.4 | 12.9 | 0.00 | 0.03 | 0.03 | 86 | 1012.5 |
| 20260506005924 | 16 | 236 | 1.6 | 12.9 | 0.00 | 0.03 | 0.03 | 86 | 1012.6 |
| 20260506005649 | 16 | 274 | 3.2 | 12.9 | 0.00 | 0.03 | 0.03 | 86 | 1012.5 |
| 20260506005428 | 16 | 223 | 1.6 | 12.9 | 0.00 | 0.03 | 0.03 | 86 | 1012.6 |
| 20260506004431 | 16 | 285 | 8.0 | 12.9 | 0.00 | 0.03 | 0.03 | 86 | 1012.6 |
| 20260506003445 | 16 | 244 | 4.8 | 12.9 | 0.00 | 0.03 | 0.03 | 86 | 1012.6 |
| 20260506002929 | 16 | 266 | 1.6 | 11.3 | 0.00 | 0.03 | 0.03 | 86 | 1012.4 |
| 20260506001917 | 16 | 276 | 4.8 | 9.7 | 0.00 | 0.03 | 0.03 | 86 | 1012.4 |
| 20260506001416 | 16 | 290 | 0.0 | 12.9 | 0.00 | 0.03 | 0.03 | 86 | 1012.4 |
| 20260506000915 | 16 | 324 | 1.6 | 12.9 | 0.00 | 0.03 | 0.03 | 86 | 1012.5 |
| 20260506000416 | 16 | 264 | 3.2 | 12.9 | 0.00 | 0.03 | 0.03 | 86 | 1012.3 |
| 20260506000255 | 16 | 277 | 1.6 | 9.7 | 0.00 | 0.03 | 0.03 | 85 | 1012.4 |
| 20260505235923 | 16 | 256 | 3.2 | 12.9 | 0.00 | 0.03 | 0.03 | 86 | 1012.3 |
| 20260505235009 | 16 | 224 | 0.0 | 3.2 | 0.00 | 0.03 | 0.03 | 82 | 1012.2 |
| 20260505234919 | 17 | 254 | 1.6 | 6.4 | 0.00 | 0.03 | 0.03 | 83 | 1012.1 |
| 20260505233908 | 16 | 176 | 0.0 | 4.8 | 0.00 | 0.03 | 0.03 | 83 | 1012.2 |
| 20260505233408 | 16 | 164 | 1.6 | 6.4 | 0.00 | 0.03 | 0.03 | 83 | 1012.4 |
| 20260505232951 | 17 | 150 | 3.2 | 6.4 | 0.00 | 0.03 | 0.03 | 82 | 1012.5 |
| 20260505232919 | 16 | 229 | 3.2 | 6.4 | 0.00 | 0.03 | 0.03 | 83 | 1012.3 |
| 20260505231904 | 16 | 151 | 0.0 | 6.4 | 0.00 | 0.03 | 0.03 | 83 | 1012.3 |
| 20260505231403 | 16 | 69 | 3.2 | 9.7 | 0.00 | 0.03 | 0.03 | 83 | 1012.3 |
| 20260505230901 | 16 | 183 | 6.4 | 9.7 | 0.00 | 0.03 | 0.03 | 82 | 1012.2 |
| 20260505230402 | 17 | 169 | 3.2 | 11.3 | 0.00 | 0.03 | 0.03 | 82 | 1012.4 |
| 20260505225859 | 17 | 184 | 6.4 | 11.3 | 0.00 | 0.03 | 0.03 | 82 | 1012.3 |
| 20260505225400 | 17 | 165 | 3.2 | 6.4 | 0.00 | 0.03 | 0.03 | 82 | 1012.4 |
| 20260505224857 | 17 | 183 | 3.2 | 9.7 | 0.00 | 0.03 | 0.03 | 81 | 1012.4 |
| 20260505224358 | 17 | 174 | 3.2 | 9.7 | 0.00 | 0.03 | 0.03 | 81 | 1012.5 |
| 20260505223857 | 17 | 243 | 3.2 | 6.4 | 0.00 | 0.03 | 0.03 | 81 | 1012.2 |
| 20260505223428 | 17 | 290 | 0.0 | 4.8 | 0.00 | 0.03 | 0.03 | 78 | 1012.4 |
| 20260505223402 | 18 | 303 | 0.0 | 1.6 | 0.00 | 0.03 | 0.03 | 78 | 1012.3 |
| 20260505222354 | 17 | 309 | 0.0 | 4.8 | 0.00 | 0.03 | 0.03 | 79 | 1012.3 |
| 20260505221853 | 17 | 225 | 1.6 | 11.3 | 0.00 | 0.03 | 0.03 | 79 | 1012.4 |
| 20260505221350 | 17 | 274 | 3.2 | 11.3 | 0.00 | 0.03 | 0.03 | 79 | 1012.4 |
| 20260505220852 | 17 | 242 | 0.0 | 6.4 | 0.00 | 0.03 | 0.03 | 79 | 1012.6 |
| 20260505220349 | 17 | 238 | 1.6 | 9.7 | 0.00 | 0.03 | 0.03 | 80 | 1012.6 |
| 20260505215848 | 17 | 347 | 0.0 | 9.7 | 0.00 | 0.03 | 0.03 | 80 | 1012.5 |
| 20260505215347 | 17 | 356 | 3.2 | 4.8 | 0.00 | 0.03 | 0.03 | 80 | 1012.5 |
| 20260505214848 | 17 | 318 | 1.6 | 4.8 | 0.00 | 0.03 | 0.03 | 81 | 1012.4 |
| 20260505214838 | 16 | 39 | 4.8 | 12.9 | 0.00 | 0.03 | 0.03 | 83 | 1012.6 |
| 20260505214500 | 17 | 10 | 4.8 | 11.3 | 0.00 | 0.03 | 0.03 | 83 | 1012.8 |
| 20260505214407 | 16 | 5 | 1.6 | 12.9 | 0.00 | 0.03 | 0.03 | 82 | 1012.6 |
| 20260505212843 | 16 | 35 | 3.2 | 9.7 | 0.00 | 0.03 | 0.03 | 83 | 1012.8 |
| 20260505212339 | 16 | 65 | 0.0 | 9.7 | 0.00 | 0.03 | 0.03 | 84 | 1013.0 |
| 20260505211828 | 16 | 350 | 3.2 | 17.7 | 0.00 | 0.03 | 0.03 | 83 | 1012.7 |
| 20260505211327 | 16 | 52 | 3.2 | 17.7 | 0.00 | 0.03 | 0.03 | 84 | 1012.9 |
| 20260505210830 | 16 | 52 | 9.7 | 14.5 | 0.00 | 0.03 | 0.03 | 83 | 1012.8 |
| 20260505210325 | 17 | 48 | 4.8 | 14.5 | 0.00 | 0.03 | 0.03 | 82 | 1012.8 |
| 20260505205824 | 16 | 44 | 3.2 | 6.4 | 0.00 | 0.03 | 0.03 | 82 | 1012.8 |
| 20260505205323 | 17 | 84 | 1.6 | 6.4 | 0.00 | 0.03 | 0.03 | 82 | 1012.7 |
| 20260505204822 | 17 | 58 | 1.6 | 11.3 | 0.00 | 0.03 | 0.03 | 81 | 1012.7 |
| 20260505204323 | 17 | 26 | 3.2 | 11.3 | 0.00 | 0.03 | 0.03 | 83 | 1012.7 |
| 20260505203821 | 17 | 38 | 1.6 | 11.3 | 0.00 | 0.03 | 0.03 | 82 | 1012.8 |
| 20260505203320 | 17 | 324 | 1.6 | 3.2 | 0.00 | 0.03 | 0.03 | 81 | 1012.8 |
| 20260505202819 | 17 | 321 | 0.0 | 4.8 | 0.00 | 0.03 | 0.03 | 81 | 1012.7 |
| 20260505202721 | 16 | 247 | 0.0 | 6.4 | 0.00 | 0.03 | 0.03 | 83 | 1012.8 |
| 20260505202327 | 17 | 210 | 1.6 | 6.4 | 0.00 | 0.03 | 0.03 | 82 | 1012.8 |
| 20260505201318 | 17 | 187 | 1.6 | 11.3 | 0.00 | 0.03 | 0.03 | 81 | 1013.0 |
| 20260505200815 | 16 | 182 | 1.6 | 11.3 | 0.00 | 0.03 | 0.03 | 83 | 1013.1 |
| 20260505200325 | 16 | 247 | 3.2 | 9.7 | 0.00 | 0.03 | 0.03 | 84 | 1013.3 |
| 20260505200313 | 17 | 219 | 4.8 | 9.7 | 0.00 | 0.03 | 0.03 | 83 | 1013.1 |
| 20260505195937 | 16 | 289 | 3.2 | 4.8 | 0.00 | 0.03 | 0.03 | 82 | 1013.1 |
| 20260505195831 | 16 | 265 | 1.6 | 9.7 | 0.00 | 0.03 | 0.03 | 83 | 1013.2 |
| 20260505194311 | 16 | 286 | 1.6 | 11.3 | 0.00 | 0.03 | 0.03 | 85 | 1013.2 |
| 20260505193808 | 16 | 289 | 3.2 | 11.3 | 0.00 | 0.03 | 0.03 | 86 | 1013.2 |
| 20260505193308 | 16 | 301 | 8.0 | 9.7 | 0.00 | 0.03 | 0.03 | 85 | 1013.4 |
| 20260505192809 | 16 | 300 | 1.6 | 9.7 | 0.00 | 0.03 | 0.03 | 85 | 1013.5 |
| 20260505192310 | 16 | 261 | 1.6 | 9.7 | 0.00 | 0.03 | 0.03 | 85 | 1013.3 |
| 20260505191807 | 16 | 324 | 1.6 | 9.7 | 0.00 | 0.03 | 0.03 | 84 | 1013.3 |
| 20260505191305 | 16 | 67 | 1.6 | 9.7 | 0.00 | 0.03 | 0.03 | 85 | 1013.0 |
| 20260505190805 | 16 | 235 | 1.6 | 6.4 | 0.00 | 0.03 | 0.03 | 85 | 1013.3 |
| 20260505190300 | 16 | 228 | 0.0 | 4.8 | 0.00 | 0.03 | 0.03 | 85 | 1013.0 |
| 20260505185759 | 16 | 295 | 1.6 | 9.7 | 0.00 | 0.03 | 0.03 | 84 | 1013.1 |
| 20260505185344 | 15 | 38 | 0.0 | 6.4 | 0.00 | 0.03 | 0.03 | 86 | 1013.2 |
| 20260505185310 | 16 | 249 | 3.2 | 9.7 | 0.00 | 0.03 | 0.03 | 85 | 1013.0 |
| 20260505184254 | 15 | 246 | 1.6 | 6.4 | 0.00 | 0.03 | 0.03 | 87 | 1013.2 |
| 20260505183755 | 15 | 355 | 0.0 | 4.8 | 0.00 | 0.03 | 0.03 | 88 | 1013.2 |
| 20260505183255 | 15 | 323 | 3.2 | 3.2 | 0.00 | 0.03 | 0.03 | 86 | 1013.2 |
| 20260505182826 | 15 | 184 | 1.6 | 6.4 | 0.00 | 0.03 | 0.03 | 89 | 1013.2 |
| 20260505182803 | 15 | 260 | 0.0 | 6.4 | 0.00 | 0.03 | 0.03 | 87 | 1013.2 |
| 20260505181750 | 15 | 179 | 3.2 | 3.2 | 0.00 | 0.03 | 0.03 | 88 | 1013.2 |
| 20260505181249 | 15 | 312 | 1.6 | 1.6 | 0.00 | 0.03 | 0.03 | 88 | 1013.1 |
| 20260505180751 | 14 | 318 | 0.0 | 3.2 | 0.00 | 0.03 | 0.03 | 89 | 1013.1 |
| 20260505180248 | 15 | 256 | 1.6 | 3.2 | 0.00 | 0.03 | 0.03 | 90 | 1013.1 |
| 20260505175747 | 14 | 310 | 0.0 | 1.6 | 0.00 | 0.03 | 0.03 | 90 | 1013.1 |
| 20260505175245 | 14 | 309 | 0.0 | 1.6 | 0.00 | 0.03 | 0.03 | 89 | 1013.1 |
| 20260505174744 | 15 | 6 | 0.0 | 1.6 | 0.00 | 0.03 | 0.03 | 89 | 1012.9 |
| 20260505174243 | 14 | 324 | 0.0 | 3.2 | 0.00 | 0.03 | 0.03 | 89 | 1013.0 |
| 20260505173742 | 14 | 327 | 0.0 | 4.8 | 0.00 | 0.03 | 0.03 | 89 | 1013.0 |
| 20260505173404 | 15 | 311 | 1.6 | 4.8 | 0.00 | 0.03 | 0.03 | 89 | 1012.9 |
| 20260505172953 | 12 | 256 | 1.6 | 9.7 | 0.00 | 0.00 | 0.00 | 85 | 1012.7 |
| 20260505172944 | 13 | 14 | 1.6 | 6.4 | 0.00 | 0.00 | 0.00 | 87 | 1011.8 |
| 20260505172901 | 16 | 254 | 4.8 | 9.7 | 0.00 | 0.00 | 0.00 | 75 | 1011.2 |
| 20260505172740 | 15 | 66 | 0.0 | 4.8 | 0.00 | 0.03 | 0.03 | 89 | 1012.8 |
| 20260505172239 | 15 | 328 | 1.6 | 4.8 | 0.00 | 0.03 | 0.03 | 86 | 1012.6 |
| 20260505171739 | 15 | 358 | 0.0 | 3.2 | 0.00 | 0.03 | 0.03 | 88 | 1012.7 |
| 20260505171322 | 15 | 32 | 0.0 | 3.2 | 0.00 | 0.03 | 0.03 | 86 | 1012.5 |
| 20260505170857 | 16 | 299 | 1.6 | 14.5 | 0.00 | 0.00 | 0.00 | 78 | 1011.5 |
| 20260505170737 | 15 | 4 | 0.0 | 3.2 | 0.00 | 0.03 | 0.03 | 87 | 1012.7 |
| 20260505170658 | 17 | 288 | 6.4 | 16.1 | 0.00 | 0.00 | 0.00 | 75 | 1011.5 |
| 20260505170646 | 17 | 288 | 4.8 | 12.9 | 0.00 | 0.00 | 0.00 | 75 | 1012.2 |
| 20260505170603 | 7 | 126 | 0.0 | 0.0 | 0.00 | 0.00 | 0.00 | 99 | 1011.3 |
| 20260505170235 | 15 | 309 | 0.0 | 3.2 | 0.00 | 0.03 | 0.03 | 87 | 1012.6 |
| 20260505165734 | 15 | 350 | 0.0 | 1.6 | 0.00 | 0.03 | 0.03 | 86 | 1012.6 |
| 20260505165233 | 15 | 306 | 0.0 | 1.6 | 0.00 | 0.03 | 0.03 | 87 | 1012.5 |
| 20260505164853 | 14 | 276 | 0.0 | 1.6 | 0.00 | 0.03 | 0.03 | 87 | 1012.5 |
| 20260505164743 | 14 | 276 | 0.0 | 1.6 | 0.00 | 0.03 | 0.03 | 87 | 1012.7 |
| 20260505163730 | 14 | 275 | 0.0 | 1.6 | 0.00 | 0.03 | 0.03 | 86 | 1012.5 |
| 20260505163229 | 14 | 174 | 0.0 | 3.2 | 0.00 | 0.03 | 0.03 | 86 | 1012.6 |
| 20260505162824 | 14 | 181 | 1.6 | 3.2 | 0.00 | 0.03 | 0.03 | 86 | 1012.5 |
| 20260505162350 | 12 | 253 | 1.6 | 6.4 | 0.00 | 0.00 | 0.00 | 89 | 1011.0 |
| 20260505162230 | 13 | 245 | 0.0 | 1.6 | 0.00 | 0.03 | 0.03 | 86 | 1012.2 |
| 20260505162200 | 13 | 215 | 1.6 | 11.3 | 0.00 | 0.00 | 0.00 | 86 | 1010.7 |
| 20260505161726 | 13 | 245 | 0.0 | 3.2 | 0.00 | 0.03 | 0.03 | 86 | 1012.4 |
| 20260505161226 | 13 | 245 | 0.0 | 4.8 | 0.00 | 0.03 | 0.03 | 87 | 1012.3 |
| 20260505160724 | 13 | 198 | 0.0 | 4.8 | 0.00 | 0.03 | 0.03 | 88 | 1012.5 |
| 20260505160224 | 13 | 202 | 3.2 | 4.8 | 0.00 | 0.03 | 0.03 | 89 | 1012.4 |
| 20260505152725 | 12 | 133 | 1.6 | 3.2 | 0.00 | 0.03 | 0.03 | 92 | 1012.2 |
| 20260505151714 | 12 | 185 | 1.6 | 6.4 | 0.00 | 0.03 | 0.03 | 93 | 1012.1 |
| 20260505151213 | 12 | 165 | 1.6 | 6.4 | 0.00 | 0.03 | 0.03 | 93 | 1012.1 |
| 20260505150712 | 12 | 141 | 0.0 | 6.4 | 0.00 | 0.03 | 0.03 | 94 | 1012.2 |
| 20260505150505 | 12 | 153 | 1.6 | 4.8 | 0.00 | 0.03 | 0.03 | 96 | 1012.0 |
| 20260505150214 | 12 | 115 | 0.0 | 6.4 | 0.00 | 0.03 | 0.03 | 94 | 1012.1 |
| 20260505130146 | 11 | 173 | 1.6 | 3.2 | 0.00 | 0.03 | 0.03 | 99 | 1011.4 |
| 20260505124644 | 11 | 221 | 0.0 | 3.2 | 0.00 | 0.03 | 0.03 | 99 | 1011.7 |
| 20260505124142 | 11 | 221 | 0.0 | 3.2 | 0.00 | 0.03 | 0.03 | 99 | 1011.9 |
| 20260505123728 | 11 | 110 | 0.0 | 1.6 | 0.00 | 0.03 | 0.03 | 99 | 1011.7 |
| 20260505123642 | 11 | 195 | 1.6 | 1.6 | 0.00 | 0.03 | 0.03 | 99 | 1011.5 |
| 20260505123337 | 11 | 150 | 0.0 | 1.6 | 0.00 | 0.03 | 0.03 | 99 | 1011.9 |
| 20260505123146 | 11 | 125 | 0.0 | 3.2 | 0.00 | 0.03 | 0.03 | 99 | 1011.7 |
| 20260505122643 | 11 | 150 | 1.6 | 3.2 | 0.00 | 0.03 | 0.03 | 99 | 1011.8 |
| 20260505122204 | 11 | 143 | 0.0 | 1.6 | 0.00 | 0.03 | 0.03 | 99 | 1011.7 |
| 20260505120641 | 11 | 141 | 0.0 | 1.6 | 0.00 | 0.03 | 0.03 | 99 | 1011.6 |
| 20260505120139 | 11 | 137 | 1.6 | 1.6 | 0.00 | 0.03 | 0.03 | 99 | 1011.8 |
| 20260505120018 | 11 | 297 | 0.0 | 0.0 | 0.03 | 0.03 | 0.03 | 99 | 1011.7 |
| 20260505115639 | 11 | 192 | 1.6 | 1.6 | 0.00 | 0.03 | 0.03 | 99 | 1011.6 |
| 20260505115136 | 11 | 296 | 0.0 | 0.0 | 0.00 | 0.03 | 0.03 | 99 | 1011.7 |
| 20260505114644 | 11 | 296 | 0.0 | 0.0 | 0.03 | 0.03 | 0.03 | 99 | 1011.7 |
| 20260505113634 | 11 | 296 | 0.0 | 0.0 | 0.03 | 0.03 | 0.03 | 99 | 1011.7 |
| 20260505113135 | 11 | 296 | 0.0 | 0.0 | 0.03 | 0.03 | 0.03 | 99 | 1011.6 |
| 20260505112631 | 11 | 296 | 0.0 | 0.0 | 0.03 | 0.03 | 0.03 | 99 | 1011.7 |
| 20260505112130 | 11 | 297 | 0.0 | 0.0 | 0.03 | 0.03 | 0.03 | 98 | 1011.8 |
| 20260505111630 | 11 | 297 | 0.0 | 0.0 | 0.03 | 0.03 | 0.03 | 98 | 1011.7 |
| 20260505111129 | 11 | 297 | 0.0 | 0.0 | 0.03 | 0.03 | 0.03 | 97 | 1011.6 |
| 20260505110631 | 11 | 297 | 0.0 | 1.6 | 0.03 | 0.03 | 0.03 | 97 | 1011.6 |
| 20260505110126 | 11 | 297 | 0.0 | 1.6 | 0.00 | 0.00 | 0.00 | 96 | 1011.7 |
| 20260505102123 | 11 | 263 | 0.0 | 3.2 | 0.00 | 0.00 | 0.00 | 93 | 1011.7 |
| 20260505101657 | 12 | 313 | 0.0 | 4.8 | 0.00 | 0.00 | 0.00 | 90 | 1011.9 |
| 20260505101613 | 11 | 283 | 1.6 | 3.2 | 0.00 | 0.00 | 0.00 | 93 | 1011.9 |
| 20260505101115 | 11 | 308 | 0.0 | 3.2 | 0.00 | 0.00 | 0.00 | 93 | 1011.9 |
| 20260505100749 | 12 | 279 | 0.0 | 4.8 | 0.00 | 0.00 | 0.00 | 88 | 1012.1 |
| 20260505100630 | 11 | 315 | 0.0 | 3.2 | 0.00 | 0.00 | 0.00 | 93 | 1012.0 |
| 20260505095608 | 11 | 301 | 0.0 | 1.6 | 0.00 | 0.00 | 0.00 | 93 | 1012.1 |
| 20260505095107 | 11 | 301 | 0.0 | 1.6 | 0.00 | 0.00 | 0.00 | 93 | 1012.1 |
| 20260505094608 | 11 | 300 | 0.0 | 1.6 | 0.00 | 0.00 | 0.00 | 92 | 1012.1 |
| 20260505094108 | 11 | 310 | 1.6 | 1.6 | 0.00 | 0.00 | 0.00 | 92 | 1011.8 |
| 20260505093604 | 12 | 312 | 0.0 | 1.6 | 0.00 | 0.00 | 0.00 | 91 | 1012.2 |
| 20260505092622 | 12 | 314 | 0.0 | 4.8 | 0.00 | 0.00 | 0.00 | 89 | 1012.0 |
| 20260505091601 | 12 | 302 | 0.0 | 4.8 | 0.00 | 0.00 | 0.00 | 88 | 1011.9 |
| 20260505091100 | 12 | 249 | 0.0 | 6.4 | 0.00 | 0.00 | 0.00 | 87 | 1012.0 |
| 20260505090559 | 12 | 244 | 0.0 | 6.4 | 0.00 | 0.00 | 0.00 | 87 | 1012.3 |
| 20260505090130 | 12 | 249 | 0.0 | 3.2 | 0.00 | 0.00 | 0.00 | 87 | 1012.4 |
| 20260505085556 | 12 | 302 | 1.6 | 4.8 | 0.00 | 0.00 | 0.00 | 87 | 1012.3 |
| 20260505085055 | 12 | 275 | 1.6 | 4.8 | 0.00 | 0.00 | 0.00 | 87 | 1012.4 |
| 20260505084555 | 12 | 240 | 3.2 | 4.8 | 0.00 | 0.00 | 0.00 | 88 | 1012.3 |
| 20260505084053 | 12 | 208 | 1.6 | 3.2 | 0.00 | 0.00 | 0.00 | 88 | 1012.3 |
| 20260505083552 | 12 | 288 | 0.0 | 1.6 | 0.00 | 0.00 | 0.00 | 87 | 1012.5 |
| 20260505083442 | 12 | 61 | 1.6 | 9.7 | 0.00 | 0.00 | 0.00 | 85 | 1012.7 |
| 20260505083051 | 12 | 298 | 1.6 | 4.8 | 0.00 | 0.00 | 0.00 | 87 | 1012.7 |
| 20260505082725 | 12 | 35 | 0.0 | 4.8 | 0.00 | 0.00 | 0.00 | 87 | 1012.6 |
| 20260505081548 | 12 | 304 | 0.0 | 6.4 | 0.00 | 0.00 | 0.00 | 86 | 1012.5 |
| 20260505081047 | 12 | 310 | 0.0 | 6.4 | 0.00 | 0.00 | 0.00 | 86 | 1012.5 |
| 20260505080546 | 12 | 310 | 0.0 | 6.4 | 0.00 | 0.00 | 0.00 | 85 | 1012.6 |
| 20260505080125 | 12 | 294 | 0.0 | 9.7 | 0.00 | 0.00 | 0.00 | 85 | 1012.6 |
| 20260505074546 | 12 | 201 | 3.2 | 6.4 | 0.00 | 0.00 | 0.00 | 85 | 1012.8 |
| 20260505074047 | 12 | 234 | 1.6 | 4.8 | 0.00 | 0.00 | 0.00 | 85 | 1012.6 |
| 20260505073550 | 12 | 151 | 0.0 | 6.4 | 0.00 | 0.00 | 0.00 | 85 | 1012.7 |
| 20260505073045 | 12 | 300 | 0.0 | 12.9 | 0.00 | 0.00 | 0.00 | 85 | 1012.6 |
| 20260505072654 | 12 | 260 | 3.2 | 4.8 | 0.00 | 0.00 | 0.00 | 86 | 1012.4 |
| 20260505072542 | 12 | 317 | 1.6 | 12.9 | 0.00 | 0.00 | 0.00 | 84 | 1012.8 |
| 20260505072043 | 12 | 335 | 3.2 | 9.7 | 0.00 | 0.00 | 0.00 | 85 | 1012.5 |
| 20260505071540 | 12 | 26 | 0.0 | 6.4 | 0.00 | 0.00 | 0.00 | 85 | 1012.6 |
| 20260505071059 | 12 | 196 | 1.6 | 6.4 | 0.00 | 0.00 | 0.00 | 86 | 1012.4 |
| 20260505070309 | 12 | 349 | 0.0 | 4.8 | 0.00 | 0.00 | 0.00 | 88 | 1012.3 |
| 20260505070038 | 12 | 338 | 0.0 | 9.7 | 0.00 | 0.00 | 0.00 | 87 | 1012.4 |
| 20260505065548 | 12 | 239 | 3.2 | 4.8 | 0.00 | 0.00 | 0.00 | 89 | 1012.4 |
| 20260505065537 | 12 | 276 | 0.0 | 9.7 | 0.00 | 0.00 | 0.00 | 87 | 1012.2 |
| 20260505065041 | 12 | 331 | 1.6 | 9.7 | 0.00 | 0.00 | 0.00 | 88 | 1012.3 |
| 20260505064041 | 12 | 276 | 1.6 | 4.8 | 0.00 | 0.00 | 0.00 | 89 | 1012.2 |
| 20260505063414 | 12 | 255 | 0.0 | 4.8 | 0.00 | 0.00 | 0.00 | 90 | 1012.1 |
| 20260505063032 | 12 | 308 | 0.0 | 4.8 | 0.00 | 0.00 | 0.00 | 89 | 1012.1 |
| 20260505062542 | 12 | 7 | 0.0 | 4.8 | 0.00 | 0.00 | 0.00 | 89 | 1012.2 |
| 20260505061757 | 12 | 301 | 3.2 | 6.4 | 0.00 | 0.00 | 0.00 | 90 | 1011.9 |
| 20260505061531 | 12 | 351 | 3.2 | 6.4 | 0.00 | 0.00 | 0.00 | 90 | 1012.1 |
| 20260505061352 | 12 | 305 | 3.2 | 4.8 | 0.00 | 0.00 | 0.00 | 90 | 1011.9 |
| 20260505061047 | 12 | 270 | 1.6 | 6.4 | 0.00 | 0.00 | 0.00 | 90 | 1012.0 |
| 20260505055525 | 12 | 303 | 0.0 | 4.8 | 0.00 | 0.00 | 0.00 | 90 | 1012.0 |
| 20260505055027 | 13 | 24 | 0.0 | 4.8 | 0.00 | 0.00 | 0.00 | 91 | 1012.1 |
| 20260505054522 | 13 | 300 | 0.0 | 4.8 | 0.00 | 0.00 | 0.00 | 91 | 1012.1 |
| 20260505054023 | 13 | 289 | 1.6 | 3.2 | 0.00 | 0.00 | 0.00 | 91 | 1012.1 |
| 20260505053521 | 13 | 312 | 1.6 | 4.8 | 0.00 | 0.00 | 0.00 | 91 | 1012.2 |
| 20260505053328 | 13 | 126 | 3.2 | 11.3 | 0.00 | 0.00 | 0.00 | 92 | 1012.5 |
| 20260505053020 | 13 | 259 | 3.2 | 4.8 | 0.00 | 0.00 | 0.00 | 92 | 1012.2 |
| 20260505052519 | 13 | 322 | 0.0 | 4.8 | 0.00 | 0.00 | 0.00 | 92 | 1012.6 |
| 20260505051516 | 13 | 7 | 1.6 | 11.3 | 0.00 | 0.00 | 0.00 | 92 | 1012.6 |
| 20260505051018 | 13 | 345 | 0.0 | 6.4 | 0.00 | 0.00 | 0.00 | 92 | 1012.4 |
| 20260505050649 | 13 | 344 | 0.0 | 4.8 | 0.00 | 0.00 | 0.00 | 91 | 1012.5 |
| 20260505050515 | 13 | 340 | 1.6 | 6.4 | 0.00 | 0.00 | 0.00 | 92 | 1012.6 |
| 20260505041505 | 13 | 287 | 0.0 | 4.8 | 0.00 | 0.00 | 0.00 | 90 | 1012.0 |
| 20260505041005 | 13 | 24 | 0.0 | 6.4 | 0.00 | 0.00 | 0.00 | 90 | 1012.0 |
| 20260505040505 | 13 | 326 | 3.2 | 6.4 | 0.00 | 0.00 | 0.00 | 90 | 1012.0 |
| 20260505040107 | 13 | 337 | 0.0 | 4.8 | 0.00 | 0.00 | 0.00 | 90 | 1011.8 |
| 20260505035502 | 13 | 285 | 1.6 | 4.8 | 0.00 | 0.00 | 0.00 | 89 | 1012.2 |
| 20260505035002 | 13 | 219 | 1.6 | 3.2 | 0.00 | 0.00 | 0.00 | 89 | 1011.9 |
| 20260505034500 | 13 | 274 | 0.0 | 6.4 | 0.00 | 0.00 | 0.00 | 88 | 1011.7 |
| 20260505034003 | 13 | 314 | 0.0 | 6.4 | 0.00 | 0.00 | 0.00 | 88 | 1011.9 |
| 20260505033051 | 14 | 276 | 0.0 | 4.8 | 0.00 | 0.00 | 0.00 | 82 | 1011.4 |
| 20260505032957 | 13 | 343 | 0.0 | 6.4 | 0.00 | 0.00 | 0.00 | 86 | 1011.6 |
| 20260505032456 | 13 | 333 | 0.0 | 6.4 | 0.00 | 0.00 | 0.00 | 86 | 1011.2 |
| 20260505032301 | 15 | 333 | 1.6 | 6.4 | 0.00 | 0.00 | 0.00 | 81 | 1011.2 |
| 20260505031951 | 14 | 289 | 0.0 | 6.4 | 0.00 | 0.00 | 0.00 | 85 | 1011.4 |
| 20260505031449 | 14 | 339 | 0.0 | 6.4 | 0.00 | 0.00 | 0.00 | 84 | 1011.3 |
| 20260505030959 | 14 | 30 | 1.6 | 4.8 | 0.00 | 0.00 | 0.00 | 83 | 1011.4 |
| 20260505030250 | 15 | 298 | 0.0 | 4.8 | 0.00 | 0.00 | 0.00 | 79 | 1011.1 |
| 20260505025950 | 15 | 316 | 0.0 | 6.4 | 0.00 | 0.00 | 0.00 | 82 | 1011.3 |
| 20260505024945 | 15 | 327 | 1.6 | 9.7 | 0.00 | 0.00 | 0.00 | 81 | 1011.3 |
| 20260505024444 | 15 | 64 | 1.6 | 9.7 | 0.00 | 0.00 | 0.00 | 81 | 1011.3 |
| 20260505023952 | 15 | 354 | 1.6 | 4.8 | 0.00 | 0.00 | 0.00 | 80 | 1011.3 |
| 20260505022941 | 15 | 143 | 0.0 | 4.8 | 0.00 | 0.00 | 0.00 | 79 | 1011.3 |
| 20260505022440 | 15 | 174 | 0.0 | 3.2 | 0.00 | 0.00 | 0.00 | 79 | 1011.2 |
| 20260505022107 | 15 | 306 | 0.0 | 3.2 | 0.00 | 0.00 | 0.00 | 78 | 1011.0 |